Tracking 29892 objects as of 21-Nov-2024
HD Live streaming from Space Station
objects crossing your sky now

O3B FM17

Track O3B FM17 now!
10-day predictions
O3B FM17 is classified as:


NORAD ID: 44114
Int'l Code: 2019-020C
Perigee: 8,068.7 km
Apogee: 8,077.4 km
Inclination: 0.0 °
Period: 287.9 minutes
Semi major axis: 14444 km
RCS: Unknown
Launch date: April 4, 2019
Source: O3b Networks (O3B)
Launch site: FRENCH GUIANA (FRGUI)
Your satellite tracking list
Your tracking list is empty




NASA's NSSDC Master Catalog

Two Line Element Set (TLE):
1 44114U 19020C   24324.63345089 -.00000025  00000-0  00000-0 0  9997
2 44114   0.0437  21.5018 0002984 224.0739 114.3967  5.00114913102780
Source of the keplerian elements: AFSPC